When you browse on this site, cookies collect data to enhance your experience and personalize the content and advertising you see.
Visit our Privacy Policy to learn more. By continuing to use the site, you agree to this use of cookies and data.
  • în România
  • Lista ţărilor
  • Pe 7 zile
  • Temperatura apei
  • Hartă satelitară
  • Meteo pe hartă
  • Widget-uri
  • user-avatar
    Intrare

    Meteo pe oră la Kumagorsk

    Astăzi, 25 Martie, Luni

    Timp Temperatura Precipitaţii Vânt Presiune Umiditate
    00:00 0°C° 0 mm 4 m/s 730 mmHg 76%
    01:00 -1°C° 0 mm 4 m/s 730 mmHg 77%
    02:00 0°C° 0 mm 3 m/s 730 mmHg 78%
    03:00 0°C° 0 mm 3 m/s 730 mmHg 80%
    04:00 0°C° 0 mm 3 m/s 730 mmHg 81%
    05:00 -1°C° 0 mm 2 m/s 730 mmHg 82%
    06:00 -1°C° 0 mm 2 m/s 730 mmHg 83%
    07:00 +1°C° 0 mm 2 m/s 729 mmHg 75%
    08:00 +3°C° 0 mm 2 m/s 729 mmHg 67%
    09:00 +4°C° 0 mm 2 m/s 729 mmHg 59%
    10:00 +5°C° 0 mm 2 m/s 729 mmHg 54%
    11:00 +6°C° 0 mm 2 m/s 729 mmHg 50%
    12:00 +7°C° 0 mm 2 m/s 728 mmHg 45%
    13:00 +8°C° 0 mm 2 m/s 728 mmHg 43%
    14:00 +10°C° 0 mm 1 m/s 728 mmHg 42%
    15:00 +10°C° 0 mm 1 m/s 728 mmHg 41%
    16:00 +10°C° 0 mm 1 m/s 728 mmHg 45%
    17:00 +10°C° 0 mm 1 m/s 728 mmHg 48%
    18:00 +8°C° 0 mm 2 m/s 728 mmHg 52%
    19:00 +7°C° 0 mm 2 m/s 728 mmHg 56%
    20:00 +6°C° 0 mm 2 m/s 729 mmHg 61%
    21:00 +5°C° 0 mm 2 m/s 729 mmHg 65%
    22:00 +5°C° 0 mm 2 m/s 729 mmHg 68%
    23:00 +4°C° 0 mm 2 m/s 728 mmHg 71%

    Mâine, 26 Martie, Marţi

    Timp Temperatura Precipitaţii Vânt Presiune Umiditate
    00:00 +4°C° 0 mm 2 m/s 728 mmHg 73%
    01:00 +3°C° 0 mm 2 m/s 728 mmHg 75%
    02:00 +3°C° 0 mm 2 m/s 728 mmHg 76%
    03:00 +2°C° 0 mm 2 m/s 728 mmHg 77%
    04:00 +2°C° 0 mm 2 m/s 728 mmHg 77%
    05:00 +1°C° 0 mm 3 m/s 728 mmHg 78%
    06:00 +1°C° 0 mm 3 m/s 728 mmHg 78%
    07:00 +1°C° 0 mm 4 m/s 728 mmHg 71%
    08:00 +3°C° 0 mm 5 m/s 727 mmHg 63%
    09:00 +5°C° 0 mm 6 m/s 727 mmHg 56%
    10:00 +7°C° 0 mm 6 m/s 727 mmHg 54%
    11:00 +8°C° 0 mm 6 m/s 727 mmHg 52%
    12:00 +9°C° 0 mm 6 m/s 726 mmHg 50%
    13:00 +10°C° 0 mm 6 m/s 726 mmHg 49%
    14:00 +11°C° 0 mm 6 m/s 725 mmHg 48%
    15:00 +11°C° 0 mm 6 m/s 725 mmHg 47%
    16:00 +10°C° 0 mm 5 m/s 725 mmHg 51%
    17:00 +10°C° 0 mm 5 m/s 725 mmHg 55%
    18:00 +10°C° 0 mm 4 m/s 725 mmHg 58%
    19:00 +8°C° 0 mm 4 m/s 725 mmHg 63%
    20:00 +8°C° 0 mm 3 m/s 726 mmHg 68%
    21:00 +5°C° 0 mm 3 m/s 726 mmHg 73%
    22:00 +6°C° 0 mm 2 m/s 726 mmHg 75%
    23:00 +5°C° 0 mm 2 m/s 726 mmHg 77%

    Poimâine, 27 Martie, Miercuri

    Timp Temperatura Precipitaţii Vânt Presiune Umiditate
    00:00 +4°C° 0 mm 2 m/s 725 mmHg 79%
    01:00 +5°C° 0 mm 1 m/s 725 mmHg 79%
    02:00 +5°C° 0 mm 1 m/s 725 mmHg 80%
    03:00 +4°C° 0 mm 1 m/s 725 mmHg 80%
    04:00 +4°C° 0 mm 1 m/s 725 mmHg 80%
    05:00 +4°C° 0 mm 1 m/s 726 mmHg 81%
    06:00 +4°C° 0 mm 1 m/s 726 mmHg 81%
    07:00 +5°C° 0 mm 2 m/s 726 mmHg 73%
    08:00 +8°C° 0 mm 3 m/s 726 mmHg 64%
    09:00 +10°C° 0 mm 4 m/s 726 mmHg 55%
    10:00 +12°C° 0 mm 4 m/s 726 mmHg 50%
    11:00 +13°C° 0 mm 5 m/s 726 mmHg 44%
    12:00 +14°C° 0 mm 5 m/s 726 mmHg 38%
    13:00 +15°C° 0 mm 5 m/s 726 mmHg 38%
    14:00 +15°C° 0 mm 5 m/s 726 mmHg 38%
    15:00 +15°C° 0 mm 5 m/s 726 mmHg 38%
    16:00 +15°C° 0 mm 4 m/s 727 mmHg 43%
    17:00 +14°C° 0 mm 4 m/s 727 mmHg 48%
    18:00 +13°C° 0 mm 3 m/s 727 mmHg 53%
    19:00 +12°C° 0 mm 3 m/s 728 mmHg 57%
    20:00 +11°C° 0 mm 3 m/s 729 mmHg 62%
    21:00 +12°C° 0 mm 2 m/s 729 mmHg 66%
    22:00 +10°C° 0.2 mm 3 m/s 729 mmHg 70%
    23:00 +10°C° 0.2 mm 3 m/s 729 mmHg 74%

    28 Martie, Joi

    Timp Temperatura Precipitaţii Vânt Presiune Umiditate
    00:00 +8°C° 0.2 mm 4 m/s 729 mmHg 78%
    01:00 +7°C° 0.2 mm 4 m/s 730 mmHg 76%
    02:00 +7°C° 0.2 mm 4 m/s 730 mmHg 74%
    03:00 +6°C° 0.2 mm 5 m/s 730 mmHg 72%
    04:00 +5°C° 0 mm 4 m/s 730 mmHg 68%
    05:00 +5°C° 0 mm 4 m/s 731 mmHg 64%
    06:00 +4°C° 0 mm 4 m/s 731 mmHg 60%
    07:00 +4°C° 0 mm 4 m/s 731 mmHg 58%
    08:00 +5°C° 0 mm 4 m/s 731 mmHg 57%
    09:00 +5°C° 0 mm 4 m/s 731 mmHg 55%
    10:00 +6°C° 0 mm 4 m/s 731 mmHg 54%
    11:00 +7°C° 0 mm 4 m/s 731 mmHg 52%
    12:00 +8°C° 0 mm 4 m/s 731 mmHg 50%
    13:00 +8°C° 0 mm 5 m/s 731 mmHg 52%
    14:00 +7°C° 0 mm 5 m/s 731 mmHg 55%
    15:00 +7°C° 0 mm 5 m/s 730 mmHg 57%
    16:00 +6°C° 0.3 mm 4 m/s 731 mmHg 60%
    17:00 +6°C° 0.3 mm 4 m/s 731 mmHg 62%
    18:00 +5°C° 0.3 mm 4 m/s 731 mmHg 65%
    19:00 +5°C° 0.4 mm 3 m/s 732 mmHg 67%
    20:00 +4°C° 0.4 mm 3 m/s 732 mmHg 70%
    21:00 +5°C° 0.4 mm 2 m/s 733 mmHg 73%
    22:00 +3°C° 0.5 mm 3 m/s 733 mmHg 75%
    23:00 +2°C° 0.5 mm 3 m/s 733 mmHg 78%

    29 Martie, Vineri

    Timp Temperatura Precipitaţii Vânt Presiune Umiditate
    00:00 +2°C° 0.5 mm 3 m/s 733 mmHg 80%
    01:00 +1°C° 0.6 mm 3 m/s 733 mmHg 82%
    02:00 +1°C° 0.6 mm 3 m/s 733 mmHg 83%
    03:00 +1°C° 0.6 mm 2 m/s 733 mmHg 84%
    04:00 +1°C° 0.3 mm 2 m/s 733 mmHg 85%
    05:00 +1°C° 0.3 mm 2 m/s 733 mmHg 85%
    06:00 +2°C° 0.3 mm 1 m/s 734 mmHg 85%
    07:00 +2°C° 0.1 mm 1 m/s 734 mmHg 80%
    08:00 +2°C° 0.1 mm 1 m/s 734 mmHg 76%
    09:00 +3°C° 0.1 mm 1 m/s 734 mmHg 71%
    10:00 +3°C° 0 mm 1 m/s 734 mmHg 67%
    11:00 +3°C° 0 mm 0 m/s 734 mmHg 64%
    12:00 +4°C° 0 mm 0 m/s 733 mmHg 61%
    13:00 +5°C° 0 mm 0 m/s 733 mmHg 58%
    14:00 +5°C° 0 mm 0 m/s 732 mmHg 55%
    15:00 +6°C° 0 mm 0 m/s 732 mmHg 52%
    16:00 +6°C° 0 mm 1 m/s 732 mmHg 54%
    17:00 +6°C° 0 mm 1 m/s 732 mmHg 55%
    18:00 +6°C° 0 mm 1 m/s 732 mmHg 57%
    19:00 +5°C° 0 mm 1 m/s 732 mmHg 61%
    20:00 +4°C° 0 mm 1 m/s 732 mmHg 65%
    21:00 +2°C° 0 mm 2 m/s 732 mmHg 69%
    22:00 +2°C° 0 mm 2 m/s 732 mmHg 69%
    23:00 +2°C° 0 mm 2 m/s 732 mmHg 70%

    30 Martie, Sâmbătă

    Timp Temperatura Precipitaţii Vânt Presiune Umiditate
    00:00 +1°C° 0 mm 2 m/s 731 mmHg 71%
    01:00 +1°C° 0 mm 2 m/s 731 mmHg 71%
    02:00 +1°C° 0 mm 2 m/s 731 mmHg 72%
    03:00 -1°C° 0 mm 2 m/s 730 mmHg 72%
    04:00 -1°C° 0 mm 2 m/s 730 mmHg 73%
    05:00 -1°C° 0 mm 2 m/s 730 mmHg 73%
    06:00 -1°C° 0 mm 2 m/s 730 mmHg 73%
    07:00 +1°C° 0 mm 3 m/s 730 mmHg 67%
    08:00 +3°C° 0 mm 3 m/s 730 mmHg 60%
    09:00 +4°C° 0 mm 4 m/s 730 mmHg 54%
    10:00 +5°C° 0 mm 4 m/s 730 mmHg 56%
    11:00 +5°C° 0 mm 5 m/s 730 mmHg 58%
    12:00 +6°C° 0 mm 5 m/s 729 mmHg 60%
    13:00 +5°C° 0.1 mm 5 m/s 729 mmHg 61%
    14:00 +5°C° 0.1 mm 4 m/s 729 mmHg 63%
    15:00 +5°C° 0.1 mm 4 m/s 729 mmHg 64%
    16:00 +5°C° 0 mm 3 m/s 730 mmHg 63%
    17:00 +6°C° 0 mm 2 m/s 730 mmHg 62%
    18:00 +6°C° 0 mm 2 m/s 730 mmHg 61%
    19:00 +4°C° 0 mm 2 m/s 731 mmHg 65%
    20:00 +4°C° 0 mm 1 m/s 731 mmHg 69%
    21:00 +3°C° 0 mm 1 m/s 732 mmHg 74%
    22:00 +3°C° 0 mm 1 m/s 731 mmHg 78%
    23:00 +2°C° 0 mm 1 m/s 731 mmHg 81%
    Arată mai mult